Theta_e
337 335 339 339 340 340 340 336 336 334 327 325 324 324 325 328 330 333 334 336 337 333 333 335 334 332 328 317 313 315 321 325 326 326 313 312 317 325 331 337 330 325 325
336 335 338 339 339 340 340 338 337 335 328 325 324 324 324 325 328 330 332 336 337 334 334 335 334 332 331 321 316 325 329 329 329 331 329 312 311 315 326 325 313 317 316
333 328 336 338 339 340 341 338 338 336 330 325 324 323 323 324 328 330 332 336 338 335 333 334 334 333 333 328 319 328 330 331 331 330 330 321 311 310 309 309 310 311 309
326 325 334 338 339 340 340 338 337 335 329 325 324 323 323 324 328 331 333 336 338 336 333 333 333 334 334 333 326 328 330 331 332 331 330 326 312 311 310 309 309 309 308
332 325 332 338 339 339 340 339 337 334 327 325 324 322 323 324 327 331 333 335 338 337 335 333 334 334 335 335 332 331 330 330 330 332 329 322 315 314 313 311 309 308 307
342 331 328 335 337 338 338 338 336 333 326 325 324 322 323 324 326 328 331 333 335 337 337 336 335 336 334 335 335 333 333 334 334 331 325 319 319 320 317 314 313 312 310
342 333 327 332 335 336 336 334 332 329 325 325 324 323 322 324 325 326 328 330 333 336 338 337 336 336 336 334 336 335 336 336 334 332 327 325 325 326 325 323 320 317 315
342 340 325 331 334 333 329 329 327 326 325 325 324 323 323 323 324 325 326 327 330 332 335 337 337 337 336 335 335 336 336 338 337 335 336 335 330 329 329 328 326 323 320
345 343 325 328 331 327 324 325 325 325 325 325 324 323 323 323 323 323 324 325 326 327 330 334 337 337 337 336 336 336 336 339 339 338 337 339 338 333 330 329 329 327 325
345 344 325 326 326 324 324 324 325 325 325 325 324 323 323 323 323 323 323 323 325 326 326 329 333 336 337 336 337 337 335 339 340 339 338 339 338 338 335 330 329 329 329
344 343 339 329 324 324 324 324 324 325 325 324 324 324 324 324 324 323 323 326 324 324 325 325 328 331 334 337 337 336 337 338 341 340 339 339 339 337 338 335 330 329 330
345 343 340 339 330 326 331 324 324 324 324 324 324 324 325 334 340 338 336 331 324 323 323 323 324 326 328 333 335 339 340 342 343 342 340 339 339 338 336 337 333 329 329
345 343 341 340 339 338 339 335 325 325 325 325 326 328 327 341 343 341 341 340 333 326 324 325 335 333 332 343 345 344 342 334 343 342 340 340 340 337 336 336 336 332 328
345 342 341 341 340 339 339 340 338 335 335 331 331 334 335 342 344 344 341 341 342 336 340 336 339 341 342 344 344 343 341 343 344 342 340 337 340 336 336 336 337 336 331
345 343 342 342 342 340 341 342 343 340 341 342 344 344 341 343 346 345 342 342 342 342 341 339 338 337 341 341 341 339 341 344 342 341 341 339 334 339 337 337 336 337 335
344 343 342 343 344 340 342 346 343 343 342 342 344 346 347 347 347 346 344 343 341 341 341 340 340 338 339 341 339 340 340 343 340 341 343 339 338 340 341 338 337 336 336
344 344 343 345 347 345 341 346 347 344 344 344 344 346 347 346 347 347 346 345 344 342 340 339 340 343 343 339 340 342 339 339 339 340 341 340 341 342 341 341 338 336 335
348 346 346 346 348 348 346 340 346 347 347 345 346 345 346 346 345 347 346 346 345 343 343 339 342 342 342 344 345 342 337 337 339 340 341 341 342 342 341 341 340 338 338
352 350 348 347 348 348 347 348 343 346 346 348 346 345 346 347 346 346 344 344 345 344 343 342 342 343 344 340 341 342 342 340 341 342 343 342 337 339 340 338 339 338 337
354 353 352 350 349 350 349 347 349 344 347 348 346 347 348 348 348 343 343 347 345 345 344 341 340 341 341 343 341 343 341 341 337 334 342 341 343 341 339 338 338 336 336
352 354 358 358 355 352 352 352 351 349 349 348 348 347 348 348 348 345 344 346 345 346 343 341 340 340 340 339 339 343 337 341 342 340 344 344 339 337 338 337 336 337 334
339 348 355 356 355 357 354 355 355 352 351 350 349 348 347 347 348 348 347 346 347 345 338 342 337 343 344 345 340 339 341 340 339 340 332 341 332 333 336 338 337 335 336
339 339 340 346 351 355 357 356 355 354 354 350 349 348 347 347 348 348 349 346 348 347 346 344 339 337 337 334 339 341 340 340 339 339 336 333 335 332 337 336 337 337 336
340 342 343 338 336 349 355 356 356 355 351 350 349 348 345 346 346 348 347 344 345 347 345 338 340 340 339 336 340 342 343 342 337 338 336 335 336 333 332 332 337 338 337
334 338 342 344 345 341 334 350 353 353 352 352 349 347 345 344 344 345 342 341 337 343 342 337 341 340 339 339 341 341 341 342 336 325 328 336 337 335 336 335 334 335 332
331 332 332 332 341 344 345 341 343 351 351 350 350 349 348 346 346 345 345 338 332 330 323 340 340 333 335 337 338 338 337 333 330 331 327 326 331 335 334 335 334 334 326
Wind_Speed
14 23 20 18 18 17 15 14 14 13 13 13 12 12 12 13 13 13 14 15 15 16 17 18 19 20 21 21 20 21 23 25 27 28 23 19 16 15 16 14 9 9 8
21 23 21 20 19 17 15 14 13 12 12 12 11 11 11 12 12 12 13 13 14 14 15 16 17 19 21 22 22 26 29 31 29 26 25 21 17 15 12 7 8 9 9
23 24 21 21 21 18 16 14 13 11 11 11 10 10 10 11 11 11 12 12 12 13 13 14 15 17 20 22 22 25 27 25 24 23 18 17 17 15 14 12 11 11 12
23 24 23 22 22 19 16 14 13 11 10 9 9 9 9 10 10 10 10 11 10 11 12 12 13 15 17 20 23 25 24 22 21 19 19 9 14 15 15 15 14 13 15
19 24 22 22 21 18 16 14 12 10 9 9 8 8 8 9 10 9 9 9 9 9 9 10 11 12 13 16 18 21 23 21 19 13 5 7 13 14 15 16 15 14 12
21 20 22 21 20 18 16 14 12 10 9 8 7 7 8 8 8 8 7 7 7 7 7 7 7 8 10 12 14 18 19 18 16 8 11 10 12 15 16 15 14 15 15
21 19 23 20 20 18 16 15 13 11 9 8 7 7 7 7 7 7 6 6 5 5 5 5 4 5 6 8 11 14 18 17 15 5 11 13 12 13 14 14 15 15 15
22 16 22 20 18 17 16 14 13 11 9 9 7 6 6 6 5 5 5 5 4 3 4 3 2 2 3 5 6 7 10 15 13 1 9 13 12 12 12 13 14 14 15
16 14 23 20 19 17 16 15 13 11 11 10 8 7 6 5 4 3 3 3 2 2 2 3 3 3 1 1 3 4 8 11 10 1 5 12 11 10 10 11 12 12 13
15 12 22 22 20 18 17 16 14 13 11 10 9 8 7 5 4 3 3 2 2 2 3 3 4 5 5 3 1 2 5 8 5 7 6 10 12 9 9 8 9 9 10
17 13 15 18 20 18 18 16 15 14 13 12 11 9 7 6 5 5 4 3 3 4 4 5 6 7 8 6 2 2 2 4 4 9 7 10 13 12 9 8 6 6 7
19 17 18 18 19 17 15 17 18 16 15 14 12 10 8 4 3 5 4 4 6 7 7 7 8 8 9 7 2 2 2 4 8 14 10 12 15 16 11 8 6 5 5
19 18 20 20 16 19 18 15 17 17 16 15 13 12 10 8 14 11 9 6 7 10 9 9 10 8 7 3 7 12 17 9 11 11 11 14 16 16 12 10 8 7 5
22 19 21 21 21 22 21 16 12 12 11 14 15 14 12 17 16 10 12 10 7 6 8 8 11 15 8 10 12 12 14 4 7 12 13 17 14 15 14 12 10 8 7
22 21 21 22 23 24 18 14 9 14 14 9 10 14 14 20 15 14 11 12 11 7 7 4 8 12 10 12 13 11 14 8 14 14 12 13 14 14 15 15 12 10 10
20 21 18 22 22 24 25 16 14 13 18 13 15 15 14 16 13 14 13 15 15 12 10 11 11 14 14 12 9 12 12 12 12 14 14 20 10 13 14 17 13 11 10
20 21 22 18 18 18 30 24 17 17 19 15 19 18 19 18 16 19 15 14 13 12 13 14 15 12 16 13 14 14 15 15 11 15 15 14 13 11 13 14 14 14 13
17 18 20 20 19 20 21 24 25 21 17 18 19 21 24 24 22 21 20 18 16 14 14 12 15 15 17 18 18 14 12 15 13 15 14 11 15 14 9 14 17 15 15
15 18 20 21 19 20 17 20 20 21 20 23 23 21 24 24 22 25 20 20 17 18 15 15 14 16 18 16 16 15 14 13 14 17 16 10 16 13 13 14 13 16 15
14 15 18 22 22 19 19 19 20 18 21 18 20 22 24 26 24 22 24 16 19 22 17 16 17 17 20 17 20 19 19 18 22 17 15 12 7 10 11 14 15 19 15
17 12 12 15 20 22 19 21 19 22 20 22 22 22 25 27 28 22 24 22 23 24 17 16 19 20 22 20 21 22 21 18 10 11 11 8 8 6 10 14 13 15 16
9 15 17 18 18 20 26 23 19 14 20 20 21 20 25 29 29 26 24 21 24 22 18 21 23 21 18 16 16 17 15 12 17 15 7 14 14 13 6 10 11 15 14
7 5 10 17 21 18 21 21 22 24 20 21 25 23 26 30 31 27 27 22 24 25 21 19 21 22 23 22 17 17 6 6 14 13 15 11 9 4 4 4 11 7 7
11 9 5 3 16 22 21 21 20 21 25 26 24 24 28 30 31 31 30 28 27 26 24 21 21 20 18 19 17 16 19 16 3 8 13 9 10 5 6 3 6 5 12
12 12 9 10 10 4 17 24 21 21 23 18 21 23 26 32 34 34 31 31 26 30 26 20 21 21 17 16 17 12 20 12 12 10 7 14 9 3 4 7 7 12 15
13 10 12 12 12 10 8 4 16 18 19 22 23 22 25 32 37 41 38 33 30 28 26 26 25 24 23 20 18 13 14 13 10 11 8 7 9 9 10 6 7 13 15
Wind_Direction
161 161 157 153 150 144 140 138 129 118 110 106 102 101 100 99 99 101 99 95 88 84 81 74 69 64 64 66 70 77 81 75 70 59 58 66 84 83 83 93 67 63 49
156 160 156 152 150 150 148 145 136 127 115 109 106 103 103 104 103 104 106 101 92 84 84 74 67 64 63 64 74 80 77 70 65 59 41 44 58 74 87 80 36 40 29
161 158 156 152 153 154 154 152 142 134 123 114 111 108 107 109 109 109 108 105 97 87 86 78 70 65 63 64 76 82 76 70 67 63 61 19 47 62 68 61 59 54 46
154 157 157 155 155 157 156 157 152 139 127 121 119 116 113 112 112 113 109 104 102 93 87 83 75 71 70 70 81 85 80 74 68 63 65 355 43 60 66 65 59 55 52
154 159 159 157 157 158 159 162 156 144 137 134 128 121 118 117 120 117 111 106 107 103 96 90 81 74 73 71 83 85 83 81 72 79 131 46 55 61 63 60 54 54 46
145 164 162 162 160 161 160 162 161 157 150 144 141 130 123 120 121 118 115 108 109 112 104 94 85 78 76 76 81 90 87 80 79 42 63 60 56 59 59 59 58 53 49
151 163 163 165 164 165 165 166 164 165 160 157 151 137 131 128 125 121 117 112 115 125 121 116 98 80 78 79 82 97 96 93 87 33 57 56 55 57 60 58 56 54 51
172 174 166 166 167 164 164 167 165 169 167 168 162 154 145 141 138 133 130 130 135 147 150 145 148 133 91 84 89 100 105 102 107 66 43 40 41 45 52 53 54 52 50
172 191 169 171 169 166 166 169 169 174 181 177 172 171 169 165 161 154 138 136 150 158 180 192 210 223 213 134 102 96 101 112 111 348 337 21 20 24 38 45 47 48 48
167 183 173 173 174 169 172 171 177 182 185 183 186 188 186 185 190 191 191 184 204 221 230 238 237 242 244 248 256 46 80 132 120 151 286 336 0 0 7 26 36 42 44
166 180 173 176 176 174 180 178 184 189 189 191 198 200 200 209 222 224 232 229 269 263 261 257 252 258 259 255 293 349 5 204 128 217 292 306 337 345 341 353 6 24 33
173 167 178 179 183 176 195 184 193 196 198 201 206 208 203 200 302 261 256 286 275 271 273 273 272 266 265 272 234 263 322 215 254 223 283 301 301 325 326 325 326 341 1
179 174 184 188 196 172 192 193 204 206 206 210 216 214 207 140 237 248 253 312 305 285 292 277 306 320 317 337 246 238 316 188 317 226 279 297 299 315 315 320 308 308 320
171 182 187 187 196 175 200 216 221 206 224 223 223 227 197 181 218 225 246 278 296 325 318 308 319 309 336 312 272 262 296 311 246 257 266 287 295 306 313 309 306 297 292
155 181 189 188 197 186 190 218 219 189 230 242 242 244 225 193 207 232 205 244 262 260 280 256 258 268 265 271 264 268 293 275 273 287 271 300 296 300 315 317 300 289 282
162 177 181 197 213 197 190 192 210 212 216 218 228 250 255 218 209 233 220 220 210 227 231 260 265 260 268 286 279 274 263 262 254 286 277 311 284 286 305 318 304 293 285
165 186 191 204 223 215 199 192 190 207 213 212 215 230 245 240 212 234 223 233 232 228 236 230 238 252 265 265 277 279 272 269 272 260 278 287 293 308 311 314 315 314 300
164 176 180 192 218 231 213 207 202 197 216 221 226 221 243 247 227 232 219 224 228 233 240 248 239 256 261 256 267 262 281 282 289 268 271 298 306 293 309 312 318 319 321
188 189 194 195 209 239 222 214 219 212 217 224 216 226 238 253 253 221 237 214 228 229 237 241 248 252 259 278 279 284 267 257 246 261 271 273 280 305 312 304 310 307 308
179 197 206 203 202 229 245 220 218 221 218 235 218 229 233 247 250 245 228 224 230 237 235 235 238 247 254 261 279 274 274 282 273 282 237 292 314 291 297 296 299 316 307
163 189 197 211 214 208 226 236 227 214 228 224 234 220 230 241 249 250 235 218 225 233 237 234 249 250 255 258 273 276 277 273 281 260 248 283 277 281 274 288 298 319 336
198 198 197 212 225 224 219 223 233 238 223 236 235 233 232 237 247 252 240 226 235 240 240 228 236 241 249 270 274 270 267 260 266 274 269 248 254 236 239 285 302 320 323
111 151 210 214 214 219 231 227 230 225 229 233 234 233 232 237 244 245 243 235 221 237 238 245 242 248 256 247 254 239 259 239 318 220 213 221 247 273 220 270 298 312 295
104 98 83 221 226 219 214 223 231 237 236 232 237 238 235 241 248 249 238 240 219 229 237 234 240 250 257 234 231 237 249 260 300 166 217 197 229 283 224 327 284 280 299
100 95 95 105 82 45 232 222 221 242 242 255 255 250 242 237 246 251 246 233 229 220 232 230 229 242 242 232 229 233 243 245 257 272 266 208 251 232 221 228 262 284 309
99 69 72 72 92 100 96 110 233 232 242 247 244 246 242 248 241 244 244 236 228 228 229 227 228 239 234 231 222 226 215 228 217 238 254 247 234 156 180 233 297 294 319